Simultaneous Nadir Overpasses (SNOs) Predictions

Prediction of SNOs between GOES-14 and AQUA Satellite Orbit:

Table of predicted SNOs for the next 14.0 days since TLE Epoch: 9/13/2019
Index Date Time (GOES-14) GOES-14 Lat,Lon AQUA Lat,Lon Distance(km) Time Diff (sec)
1 09/14/2019 08:20:36 0.34,-104.21 -0.23,-101.66 290.81 80
2 09/14/2019 20:42:01 -0.33,-104.29 -0.87,-106.85 291.48 80
3 09/16/2019 20:32:30 -0.33,-104.29 -0.28,-103.89 43.97 80
4 09/18/2019 20:20:20 -0.33,-104.28 0.38,-100.95 379.29 80
5 09/19/2019 08:41:35 0.32,-104.22 0.73,-106.10 214.00 80
6 09/21/2019 08:26:45 0.32,-104.21 0.07,-103.15 120.28 80
7 09/21/2019 20:48:10 -0.31,-104.24 -1.17,-108.35 466.58 80
8 09/23/2019 08:14:34 0.32,-104.19 -0.53,-100.20 454.22 80
9 09/23/2019 20:35:59 -0.31,-104.23 -0.57,-105.39 132.13 80
10 09/25/2019 20:26:29 -0.30,-104.22 0.10,-102.45 202.15 80
11 09/26/2019 08:47:44 0.29,-104.20 1.01,-107.60 387.01 80




NCC Satellite Simultaneous Nadir Overpasses (SNOs) Prediction Service
